Terminal Aerodrome Forecast
Issued by NWS

Home | Current Version | Previous Version | Text Only | Print | Product List | Glossary On
Versions: 1 2 3 4 5 6 7 8 9 10 11 12 13 14 15
000
FTUS44 KLZK 302320
TAFHRO
TAF
KHRO 302320Z 3100/3124 VRB03KT P6SM BKN250
      TEMPO 3110/3114 4SM BR
     FM311400 14004KT P6SM SCT250
      AMD NOT SKED=

USA.gov is the U.S. government's official web portal to all federal, state and local government web resources and services.